Tracking 29933 objects as of 2-Dec-2024
HD Live streaming from Space Station
objects crossing your sky now

TELSTAR 302

Track TELSTAR 302 now!
TELSTAR 302 is classified as:


NORAD ID: 15237
Int'l Code: 1984-093D
Perigee: 35,912.6 km
Apogee: 35,955.4 km
Inclination: 14.4 °
Period: 1,443.3 minutes
Semi major axis: 42304 km
RCS: 4.6276 m2 (large)
Launch date: August 30, 1984
Source: United States (US)
Launch site: AIR FORCE EASTERN TEST RANGE (AFETR)
Your satellite tracking list
Your tracking list is empty




NASA's NSSDC Master Catalog

Two Line Element Set (TLE):
1 15237U 84093D   24336.56800740 -.00000045  00000-0  00000+0 0  9999
2 15237  14.4391 349.5601 0005053 184.3552 359.5615  0.99773503119100
Source of the keplerian elements: AFSPC